User: anonymous   Login
Location: Unspecified
(0.0000°N, 0.0000°E)
Time: 06:47:40
(UTC+00:00)
Language:

USA 112 - Orbit

View from above orbital plane
View from above orbital plane
View from above satellite
View from above satellite

Ground track
Ground track

The orbit data is extracted from the following two-line orbital elements,

1 23609U 95034A   20020.81034915 0.00000000  00000-0  00000-0 0    09
2 23609  63.1816  29.4226 7235699 268.6039  15.3893  2.00620848    06
Epoch (UTC): 20 January 2020 19:26:54
Eccentricity: 0.7235699
inclination: 63.1816°
perigee height: 962 km
apogee height: 39391 km
right ascension of ascending node: 29.4226°
argument of perigee: 268.6039°
revolutions per day: 2.00620848
mean anomaly at epoch: 15.3893°
orbit number at epoch: 0

The dashed part of the orbit path shows where the satellite is in the earth's shadow,  

DLR